Regional Weather Roundup
Issued by NWS

Home | Current Version | Previous Version | Graphics & Text | Print | Product List | Glossary On
Versions: 1 2 3 4 5 6 7 8 9 10 11 12 13 14 15 16 17 18 19 20 21 22 23 24 25 26 27 28 29 30 31 32 33 34 35 36 37 38 39 40 41 42 43 44 45 46 47 48 49 50
000
ASUS43 KDMX 131207
RWRIA

WEATHER ROUNDUP FOR IOWA
NATIONAL WEATHER SERVICE DES MOINES IA
700 AM CDT SUN JUL 13 2014

NOTE: "FAIR" INDICATES FEW OR NO CLOUDS BELOW 12,000 FEET WITH NO
SIGNIFICANT WEATHER AND/OR OBSTRUCTIONS TO VISIBILITY.

* - THESE STATIONS ARE NOT NWS STATIONS...THUS NOT UNDER NWS
QUALITY CONTROL.  THEY ALSO DO NOT REPORT WEATHER SUCH
AS PRECIPITATION OR FOG.

IAZ001>003-012>014-020>022-031>034-043>046-131300-
   NORTHWEST IOWA

CITY           SKY/WX    TMP DP  RH WIND       PRES   REMARKS
CARROLL *      SUNNY     64  64 100 CALM      30.04R FOG
CHEROKEE *     MOCLDY    63  63 100 CALM      30.04S FOG
DENISON *      FOG       63  63 100 CALM      30.04S VSB 0
LE MARS *      CLOUDY    64  64 100 S3        30.06R FOG
ORANGE CITY *  PTCLDY    66  63  88 SW5       30.05R
SHELDON *      PTCLDY    64  63  94 W5        30.03R
SIOUX CITY     FOG       65  64  97 NW3       30.05S VSB 1
6HR MIN TEMP:  62; 6HR MAX TEMP:  66;

SPENCER        PTSUNNY   66  64  93 W6        30.03R
6HR MIN TEMP:  61; 6HR MAX TEMP:  66; 6HR PCP: TRACE;

STORM LAKE *   CLEAR     64  64 100 W7        30.05S FOG
$$

IAZ055>058-069>071-079>083-090>094-131300-
   SOUTHWEST IOWA

CITY           SKY/WX    TMP DP  RH WIND       PRES   REMARKS
ATLANTIC *     CLEAR     64  64 100 CALM      30.05S
AUDUBON *      CLEAR     64  63  94 CALM      30.06S FOG
CLARINDA *     CLEAR     68  68 100 CALM      30.05S FOG
COUNCIL BLFS * CLEAR     68  68 100 W5        30.05S FOG
CRESTON *      CLEAR     66  66 100 NW6       30.05R FOG
HARLAN  *      FOG       61  61 100 CALM      30.09R VSB 3/4
LAMONI         CLOUDY    68  67  96 N3        30.03S FOG
6HR MIN TEMP:  67; 6HR MAX TEMP:  72; 6HR PCP: TRACE;

RED OAK *      CLEAR     68  68 100 N6        30.05R FOG
SHENANDOAH *   CLEAR     68  68 100 CALM      30.05R
$$

IAZ047>049-059>061-072>074-084-131300-
   CENTRAL IOWA

CITY           SKY/WX    TMP DP  RH WIND       PRES   REMARKS
AMES           FOG       65  65 100 W7        30.02R VSB<1/4
6HR MIN TEMP:  62; 6HR MAX TEMP:  65;

ANKENY *       CLOUDY    66  66 100 NW5       30.02S FOG
CHARITON *     SUNNY     66  66 100 NW6       30.03R FOG
DES MOINES     PTSUNNY   68  66  93 W5        30.01F
6HR MIN TEMP:  66; 6HR MAX TEMP:  69;

GRINNELL*      FOG       66  65  96 W3        30.02S VSB<1/4
KNOXVILLE *    PTSUNNY   66  66 100 CALM      30.01R FOG
MARSHALLTOWN   FOG       64  64 100 SW5       30.00S VSB<1/4
6HR MIN TEMP:  61; 6HR MAX TEMP:  64;

PELLA *        FOG       68  67  98 W3        30.03S VSB 1
PERRY *          N/A     64  64 100 W3        30.03S FOG
$$

IAZ004>006-015-016-023>025-035-036-131300-
   NORTH CENTRAL IOWA

CITY           SKY/WX    TMP DP  RH WIND       PRES   REMARKS
ALGONA *       SUNNY     66  66 100 W9        30.01R
CLARION *      SUNNY     63  63 100 S5        30.01R FOG
ESTHERVILLE    MOSUNNY   64  63  96 W6        30.02R
6HR MIN TEMP:  62; 6HR MAX TEMP:  65;

FORT DODGE *   SUNNY     63  61  94 CALM      30.03R
MASON CITY     SUNNY     67  65  93 W12       30.00R
6HR MIN TEMP:  58; 6HR MAX TEMP:  67;

FOREST CITY *  SUNNY     63  63 100 W3        30.00R
IOWA FALLS *   FOG       64  63  94 W7        30.02R VSB 1/2
$$

IAZ007>011-017>019-026>030-037>042-050>054-066-131300-
   NORTHEAST IOWA

CITY           SKY/WX    TMP DP  RH WIND       PRES   REMARKS
CEDAR RAPIDS   CLOUDY    66  65  96 W7        29.99R FOG
6HR MIN TEMP:  66; 6HR MAX TEMP:  67;

CHARLES CITY * SUNNY     63  63 100 SW5       29.98S FOG
CLINTON *      CLOUDY    64  63  94 NW8       30.00R
DECORAH *        N/A    N/A N/A N/A MISG        N/A
DUBUQUE        CLOUDY    64  64 100 W7        29.98R
6HR MIN TEMP:  62; 6HR MAX TEMP:  64;

MONTICELLO *   CLOUDY    66  66 100 W7        29.98S
OELWEIN *      FOG       64  64 100 SW7       30.00R VSB 0
WATERLOO       FOG       63  62  97 SW5       29.98R VSB 1/2
6HR MIN TEMP:  60; 6HR MAX TEMP:  63;

$$

IAZ064-065-067-068-078-131300-
   EAST CENTRAL IOWA

CITY           SKY/WX    TMP DP  RH WIND       PRES   REMARKS
DAVENPORT        N/A     66  64  93 W9        29.99R
6HR MIN TEMP:  64; 6HR MAX TEMP:  69;

IOWA CITY      CLOUDY    68  66  93 NW7       30.00R
6HR MIN TEMP:  66; 6HR MAX TEMP:  68;

MT. PLEASANT * CLOUDY    68  66  94 NW5       30.00R FOG
MUSCATINE *    CLOUDY    68  66  94 NW5       29.99R
QUAD CITIES    CLOUDY    67  64  90 W8        29.97S
6HR MIN TEMP:  66; 6HR MAX TEMP:  72;

$$

IAZ062-063-075>077-085>089-095>099-131300-
   SOUTHEAST IOWA

CITY           SKY/WX    TMP DP  RH WIND       PRES   REMARKS
BURLINGTON     CLOUDY    68  67  96 VRB3      29.99R
6HR MIN TEMP:  68; 6HR MAX TEMP:  72; 6HR PCP:  0.22;

FAIRFIELD *    CLOUDY    66  64  94 NW7       30.01R FOG
FORT MADISON * SUNNY     70  70 100 NW5       30.01R
KEOKUK *       PTSUNNY   70  70 100 NW3       29.99R
OSKALOOSA *    PTSUNNY   65  65  98 W3        30.02R FOG
CENTERVILLE *  CLOUDY    68  68 100 CALM      30.04R
OTTUMWA        CLOUDY    67  66  97 W5        30.01R
6HR MIN TEMP:  65; 6HR MAX TEMP:  68;

WASHINGTON *   CLOUDY    68  66  94 NW7G13    30.00R FOG
$$

ABBREVIATIONS USED IN REMARKS
   TC - TEMPERATURES IN CELSIUS
  WCI - WIND CHILL INDEX
   HX - HEAT INDEX
  VSB - VISIBILITY
$$



USA.gov is the U.S. government's official web portal to all federal, state and local government web resources and services.